AirNav   Bose Proflight Series 2 Wireless Aviation Headset
 
 1327 users online  

KFCY Hutfly-FCY Airport
Forrest City, Arkansas, USA

GOING TO FORREST CITY?


FAA INFORMATION EFFECTIVE 07 NOVEMBER 2019

Location

FAA Identifier: FCY
Lat/Long: 34-56-31.1930N 090-46-29.8780W
34-56.519883N 090-46.497967W
34.9419981,-90.7749661
(estimated)
Elevation: 249.2 ft. / 76.0 m (surveyed)
Variation: 01E (2000)
From city: 4 miles S of FORREST CITY, AR
Time zone: UTC -6 (UTC -5 during Daylight Saving Time)
Zip code: 72335

Airport Operations

Airport use: Open to the public
Activation date: 08/1960
Control tower: no
ARTCC: MEMPHIS CENTER
FSS: JONESBORO FLIGHT SERVICE STATION
NOTAMs facility: JBR (NOTAM-D service available)
Attendance: MON-FRI 0800-1700
Wind indicator: lighted
Segmented circle: yes
Lights: DUSK-DAWN. ACTVT MIRL RY 18/36 & PAPI RYS 18 & 36 - CTAF.
Beacon: white-green (lighted land airport)
ROTG BCN OTS INDEFLY. Operates sunset to sunrise.

Airport Communications

CTAF/UNICOM: 122.8
  • APCH/DEP SVC PRVDD BY MEMPHIS ARTCC ON FREQS 135.3/335.8(BRINKLEY RCAG).

Nearby radio navigation aids

VOR radial/distance  VOR name  Freq  Var
UJMr346/22.6MARVELL VOR/DME109.6001E
GQEr207/28.3GILMORE VOR/DME113.0004E
MEMr263/39.2MEMPHIS VORTAC117.5001E

Airport Services

Fuel available: 100LL JET-A
100LL AVBL 24 HRS SELF-SERVICE WITH CREDIT CARD; JET A AVBL DURG ATTENDED HRS ONLY.
Parking: hangars and tiedowns
Airframe service: MAJOR
Powerplant service: MAJOR

Runway Information

Runway 18/36

Dimensions: 3014 x 50 ft. / 919 x 15 m
Surface: asphalt, in fair condition
Weight bearing capacity: 
Single wheel: 20.0
Runway edge lights: medium intensity
RUNWAY 18  RUNWAY 36
Latitude: 34-56.768267N34-56.271517N
Longitude: 090-46.492700W090-46.503250W
Elevation: 249.0 ft.242.5 ft.
Traffic pattern: leftleft
Runway heading: 180 magnetic, 181 true000 magnetic, 001 true
Markings: basic, in fair conditionnonprecision, in fair condition
Visual slope indicator: 2-light PAPI on left (4.00 degrees glide path)
PAPI RWY 18/36 OTS INDEFLY.
2-light PAPI on right (4.00 degrees glide path)
Runway end identifier lights: yes
REIL RWY 18/36 OTS INDEFLY.
yes
Touchdown point: yes, no lightsyes, no lights
Obstructions: none30 ft. trees, 1200 ft. from runway, 225 ft. right of centerline, 33:1 slope to clear

Airport Ownership and Management from official FAA records

Ownership: Privately-owned
Owner: HUTFLY, LLC
PO BOX 1074
FORREST CITY, AR 72335
Phone 870-633-1315
Manager: GIL GILBREATH
BOX 1296 HWY 980
FORREST CITY, AR 72335
Phone 870-633-4511

Airport Operational Statistics

Aircraft based on the field: 3
Single engine airplanes: 3
    
Aircraft operations: avg 86/day *
96% local general aviation
3% transient general aviation
1% military
* for 12-month period ending 31 August 2016

Additional Remarks

494 FT LGTD TWR 3 MILES NORTH ON CNTRLN.
RY 36 DITCH 201 FT FROM SOUTH END OF RY.
FOR CD CTC MEMPHIS APCH AT 901-842-8457.

Instrument Procedures

There are no published instrument procedures at KFCY.

Some nearby airports with instrument procedures:

6M7 - Marianna/Lee County Airport-Steve Edwards Field (10 nm S)
KDRP - Delta Regional Airport (11 nm N)
M36 - Frank Federer Memorial Airport (20 nm W)
KHEE - Thompson-Robbins Airport (22 nm S)
KUTA - Tunica Municipal Airport (26 nm SE)
 
Loc | Ops | Rwys | IFR | FBO | Links
Com | Nav | Svcs | Stats | Notes
Area around KFCY (Hutfly-FCY Airport)
 
Road maps at: MapQuest Bing Google
 
Aerial photo
WARNING: Photo may not be current or correct
Aerial photo of KFCY (Hutfly-FCY Airport)
Photo courtesy of the Arkansas Department of Aeronautics
Taken in the Spring of 2007

Do you have a better or more recent aerial photo of Hutfly-FCY Airport that you would like to share? If so, please send us your photo.

 
Sectional chart

 
Airport distance calculator
Flying to Hutfly-FCY Airport? Find the distance to fly.

From to KFCY

Sunrise and sunset
Times for 14-Nov-2019
 Local
(UTC-6)
 Zulu
(UTC)
Morning civil twilight06:1112:11
Sunrise06:3812:38
Sunset16:5822:58
Evening civil twilight17:2423:24

Current date and time
Zulu (UTC)  14-Nov-2019 21:09:03
Local (UTC-6)  14-Nov-2019 15:09:03
 
METAR
KUTA 
26nm SE 
142055Z AUTO 34005KT 10SM 08/M03 A3028 RMK AO2 TSNO
KAWM 
29nm NE 
142053Z AUTO 03007KT 10SM SCT060 09/M03 A3026 RMK AO2 SLP250 T00891033 56012
KMEM 
40nm E 
142054Z 36008KT 10SM BKN060 BKN100 10/M05 A3026 RMK AO2 SLP249 T01001050 56008 $
KCKM 
41nm S 
142055Z AUTO 00000KT 10SM 11/M03 A3027 RMK A01
KSGT 
44nm SW 
142056Z AUTO VRB05KT 9SM CLR 11/M04 A3027 RMK AO2 SLP253 T01061039 56014
KM19 
46nm NW 
142056Z AUTO 09006KT 9SM CLR 11/M02 A3027 RMK AO2 SLP252 T01061022 56017
KOLV 
49nm E 
142050Z 00000KT 10SM SCT055 11/M07 A3025
TAF
KMEM 
40nm E 
141720Z 1418/1524 31004KT P6SM SCT080 FM150000 02005KT P6SM SKC FM151500 01008KT P6SM SKC
NOTAMs
Click for the latest NOTAMs
NOTAMs are issued by the DoD/FAA and will open in a separate window not controlled by AirNav.

 

 
 

FBO, Fuel Providers, and Aircraft Ground Support

  
 Business Name 
 
 Contact 
 
 Services / Description 
 
Fuel Prices
 
Comments
  
Hutcherson Flying Service 870-633-4511
no information available

If you are affiliated with Hutcherson Flying Service and would like to show here your services, contact info, web link, logo, and more, click here
100LL Jet A
FS --- $4.00 
SS $4.71 --- 
 Updated 08-Nov-2019
 
   2 read write
FS=Full service
SS=Self service
Update Fuel Prices
 

Would you like to see your business listed on this page?

 If your business provides an interesting product or service to pilots, flight crews, aircraft, or users of the Hutfly-FCY Airport, you should consider listing it here.  To start the listing process, click on the button below
 
Add a business
 

Other Pages about Hutfly-FCY Airport

Update a link
 
Copyright © AirNav, LLC. All rights reserved. Privacy Policy  Contact